|
Cosmos 292 Rocket - Orbit
|
Unspecified;
15:01:22
| Home | Info | Passes |
|
View from above orbital plane
|
View from above satellite
|
Ground track
|
The orbit data is extracted from the following two-line orbital elements,
1 04071U 69070B 13145.17565919 .00000663 00000-0 14025-3 0 4772
2 04071 074.0509 080.1137 0013080 077.3033 025.7776 14.61263838320971
| Epoch (UTC): | 25 May 2013 04:12:56 |
| Eccentricity: | 0.0013080 |
| inclination: | 74.0509° |
| perigee height: | 680 km |
| apogee height: | 698 km |
| right ascension of ascending node: | 80.1137° |
| argument of perigee: | 77.3033° |
| revolutions per day: | 14.61263838 |
| mean anomaly at epoch: | 25.7776° |
| orbit number at epoch: | 32097 |
The dashed part of the orbit path shows where the satellite is in the earth's shadow,
|
|